Wind_Speed
39 42 44 46 48 49 49 48 47 46 46 46 45 43 40 38 36 35 35 36 38 40 42 43 44 45 46 46 46 45 45 45 46 46 46 46 46 45 45 44 44 43 43 43 44 44 45 46 47 48 49 48 47 45 44 45 46 47 47 48 47 46 45 43 42 40 39 38 38 38 37 37 36 35 34 34 34 34 34 35 36 35 34 33 32 32
37 39 42 44 47 49 49 49 48 47 47 48 47 44 41 37 35 34 33 34 36 38 40 42 44 45 46 46 46 46 46 46 46 46 46 46 46 46 45 45 44 44 44 44 44 44 45 45 47 47 48 48 47 46 44 44 44 45 46 47 47 47 46 45 44 43 41 41 40 39 39 38 38 37 36 35 35 35 35 36 37 37 35 34 34 34
36 37 39 42 45 47 48 48 47 47 47 47 47 45 42 38 35 33 32 33 34 36 38 40 43 45 46 46 46 46 46 46 46 46 46 46 46 46 46 45 45 45 45 44 44 44 45 45 46 47 47 47 47 46 45 44 43 43 43 44 45 46 46 46 46 45 44 44 43 42 41 40 40 39 39 38 37 36 36 37 38 38 37 36 36 37
34 35 37 40 42 44 45 46 46 45 45 45 44 43 41 39 36 33 33 33 34 35 36 39 41 44 45 46 46 46 46 46 46 46 47 47 47 46 46 46 46 46 45 45 45 45 45 45 46 47 47 48 47 46 45 45 44 43 43 42 43 44 45 46 47 47 46 46 45 44 43 43 42 42 41 40 38 37 37 39 39 39 39 38 38 38
32 33 35 36 39 41 42 42 43 43 42 41 40 39 38 37 35 33 33 33 34 35 36 38 40 42 44 45 46 46 46 46 46 46 47 47 47 46 46 46 46 46 46 46 46 46 46 46 46 47 47 48 48 47 47 46 45 44 43 43 42 43 44 45 46 47 47 47 46 46 46 45 45 44 43 41 39 37 38 41 41 41 41 40 40 39
32 32 33 34 36 38 39 39 40 40 39 38 37 35 34 33 32 31 31 32 34 35 36 38 39 41 43 44 45 46 46 46 46 46 46 46 47 47 47 47 47 47 47 47 46 46 46 46 46 47 47 48 48 48 48 47 46 45 44 44 43 43 43 44 45 46 47 47 47 47 47 47 46 45 44 42 40 39 41 44 45 44 43 42 41 40
33 32 32 32 33 35 36 37 38 38 37 36 34 32 30 29 29 29 29 30 33 34 36 37 38 40 41 43 44 45 46 46 46 46 46 46 46 47 47 47 47 47 47 47 47 47 47 47 47 47 47 47 48 48 47 47 46 46 46 45 44 44 43 44 44 45 46 47 48 48 48 48 47 46 45 44 42 43 45 47 47 46 45 43 42 41
33 32 31 32 32 33 34 35 36 37 37 35 33 30 29 28 28 27 26 28 30 33 35 36 38 39 40 41 42 43 45 46 46 46 46 46 47 47 47 47 47 47 47 47 47 47 47 47 47 47 47 47 47 47 46 46 46 46 46 46 45 45 44 44 44 45 45 46 47 48 48 48 48 48 47 46 45 46 47 49 49 48 46 44 42 42
32 33 32 32 32 31 32 34 35 37 37 36 34 32 30 29 29 27 24 25 28 31 33 35 37 38 39 39 39 41 43 45 46 46 47 47 47 47 47 47 48 48 48 48 48 48 48 47 47 47 47 47 47 47 46 46 45 46 46 46 46 46 45 45 45 45 45 46 47 48 48 48 49 49 49 48 48 48 49 49 49 48 46 44 43 43
30 31 32 32 32 31 31 32 34 37 38 38 36 34 32 31 29 27 24 24 27 30 33 34 36 37 37 37 37 38 40 43 44 46 46 46 47 47 47 47 48 48 48 48 48 48 48 48 47 47 47 47 47 47 47 46 46 46 46 45 45 45 45 45 45 44 45 46 47 48 48 49 49 49 49 49 49 49 49 49 49 47 45 44 44 46
28 29 31 32 32 32 32 32 33 36 39 40 38 36 34 32 30 27 24 24 26 30 33 34 34 35 35 36 36 37 38 40 42 44 45 46 46 46 46 47 47 48 48 48 48 48 48 48 47 47 47 47 47 47 47 47 46 46 45 45 44 44 44 44 43 43 44 45 46 47 48 49 50 49 49 48 48 49 49 49 48 46 45 45 47 48
26 27 29 31 32 32 32 31 33 36 40 42 41 39 36 33 31 28 26 24 25 29 32 33 34 34 35 35 35 35 36 38 40 41 43 43 44 45 45 45 46 47 47 48 48 48 48 48 47 47 47 46 47 47 47 47 46 46 45 44 44 43 43 43 42 42 42 43 45 47 49 50 50 49 48 48 49 49 50 49 49 48 48 48 49 50
25 26 27 29 31 32 32 31 32 35 40 43 44 42 39 34 31 29 27 25 25 28 31 33 34 34 34 34 34 34 35 37 38 39 40 41 42 43 44 44 45 46 47 47 48 48 48 48 47 47 47 47 47 46 46 46 45 45 45 44 44 43 43 42 41 40 41 44 47 49 50 50 50 49 49 49 50 51 51 51 51 51 51 51 52 52
24 25 27 28 30 31 32 32 32 34 39 44 46 45 42 37 32 29 27 25 26 28 30 33 34 34 34 34 34 34 35 35 36 37 38 39 41 42 42 42 43 44 45 46 47 48 48 48 48 48 48 48 47 47 46 46 45 44 45 45 44 44 43 42 41 41 43 47 50 52 52 51 50 49 49 50 52 53 54 54 53 53 53 54 54 54
24 25 26 28 29 30 31 31 32 34 38 42 46 47 46 41 36 31 28 26 27 28 30 33 35 36 35 35 35 35 35 35 34 34 36 37 39 40 41 41 41 42 43 44 45 46 47 48 48 48 48 48 48 48 47 46 45 44 44 43 43 43 42 41 41 42 46 50 54 55 54 52 51 50 51 52 54 55 56 56 55 55 56 56 55 54
23 25 26 28 30 30 31 32 32 33 36 40 45 48 49 46 41 35 31 28 27 29 31 35 37 37 37 37 37 37 37 36 35 35 35 35 37 39 39 39 39 40 40 41 42 44 45 46 47 47 48 48 49 49 49 48 46 45 44 44 43 42 41 40 41 44 49 54 56 57 56 54 52 51 53 55 57 59 59 58 57 56 56 55 53 52
22 24 26 28 29 31 32 33 33 34 35 39 43 48 51 50 46 40 34 30 28 30 33 37 39 39 39 39 39 39 39 38 38 37 37 36 36 37 38 38 38 38 39 40 41 41 42 43 44 45 46 46 47 48 48 48 47 46 45 45 44 43 42 42 43 46 51 55 58 58 57 55 54 54 54 57 61 63 63 61 59 57 56 54 52 49
21 23 25 27 29 31 32 33 34 35 35 38 42 47 51 52 50 45 39 34 31 31 33 38 40 41 40 41 42 42 41 40 40 40 40 39 39 39 38 38 38 38 38 39 40 40 40 41 42 42 42 43 43 44 45 45 45 45 44 43 43 43 43 43 45 48 51 54 57 59 59 58 58 58 59 63 67 68 67 64 61 58 55 50 47 45
21 23 25 27 29 31 32 33 34 35 35 37 41 45 49 52 53 50 45 39 35 33 33 37 41 42 41 42 43 43 42 42 42 42 42 42 41 41 40 39 39 38 38 39 39 39 39 39 39 40 40 40 41 42 42 42 42 41 41 41 41 41 42 43 45 48 50 52 56 60 62 63 63 64 65 66 66 65 61 57 54 50 45 42 40 40
21 22 24 27 29 31 32 34 35 35 36 37 39 43 47 51 53 53 50 45 40 36 34 37 41 43 42 42 43 44 44 44 44 44 44 43 43 43 42 41 40 40 40 40 40 40 39 39 39 39 39 40 40 40 40 39 39 40 40 40 40 41 42 43 45 47 48 50 54 58 61 62 62 60 58 55 50 45 41 38 36 34 33 34 36 38
21 22 24 26 28 30 33 34 35 35 36 36 38 41 45 49 52 54 53 49 45 39 35 37 41 44 44 43 44 45 45 45 46 46 45 45 44 44 44 43 42 42 42 42 42 41 41 40 40 40 40 40 39 39 38 39 40 40 41 41 41 42 42 43 44 45 46 47 50 52 53 51 48 44 40 35 31 28 26 26 27 28 31 34 36 38
21 22 24 25 27 30 33 34 35 35 35 36 38 40 44 48 51 52 53 52 49 44 39 38 42 45 46 44 44 45 45 46 47 47 46 46 45 46 46 45 44 43 44 45 45 44 43 42 42 42 41 40 39 39 40 41 41 41 42 42 42 42 43 43 44 44 44 45 46 45 42 38 35 33 31 29 27 26 26 27 29 31 33 36 38 39
21 22 23 25 27 29 32 33 34 35 36 36 38 40 43 46 49 50 51 51 50 47 43 40 42 46 48 46 45 45 46 47 47 47 47 47 46 47 48 47 45 44 46 47 47 46 46 45 44 44 43 42 41 41 42 42 42 41 41 42 42 42 43 43 44 43 43 43 43 41 39 36 34 32 31 30 29 28 28 29 31 33 35 36 38 39
20 21 23 24 26 28 30 32 34 35 36 37 38 40 42 44 47 48 49 49 49 48 45 42 44 48 51 49 47 46 46 47 48 48 48 48 48 47 47 47 47 47 48 49 49 48 47 47 46 46 46 45 44 43 44 43 42 42 41 41 41 42 42 43 43 43 42 42 41 40 38 37 35 33 32 30 29 29 30 31 32 34 35 36 37 38
19 21 22 24 25 27 29 31 33 35 36 37 38 39 40 43 45 46 46 46 47 46 44 44 47 51 54 53 50 48 47 48 48 49 50 50 49 48 47 47 47 48 49 50 50 50 49 48 47 47 47 46 46 46 46 45 45 44 43 42 42 42 43 43 43 42 42 41 40 39 38 36 35 33 31 31 31 31 32 33 33 34 35 35 36 36
18 20 22 23 25 26 28 30 32 34 35 37 38 39 39 41 43 43 43 43 44 44 45 47 50 55 57 56 53 50 49 48 49 50 51 52 51 49 48 47 46 47 49 50 50 50 49 49 48 48 47 47 47 47 46 46 45 45 45 44 44 45 45 45 44 44 43 43 43 42 40 38 35 33 32 31 31 32 33 33 34 34 34 35 35 35
17 19 20 22 24 26 27 29 30 32 34 36 37 38 38 40 40 41 41 41 42 44 45 48 52 57 59 58 55 53 51 50 50 51 52 52 52 51 50 49 47 47 48 48 48 48 48 48 47 47 47 46 46 46 45 45 44 43 43 44 44 45 45 45 45 44 44 44 43 43 41 38 36 33 32 31 31 31 32 32 32 33 33 34 34 34
15 16 18 21 23 25 27 29 30 31 33 35 36 37 37 38 40 40 40 40 41 43 44 48 53 57 60 60 58 56 54 52 52 52 52 52 52 52 51 50 48 47 46 47 46 44 43 43 43 43 44 44 44 44 44 43 41 40 39 39 39 39 39 39 39 39 39 40 39 39 37 35 33 32 30 29 29 29 30 30 30 31 31 31 31 32
13 14 15 17 20 23 26 29 30 32 33 34 35 36 37 38 40 42 42 40 40 40 42 46 52 57 61 62 61 59 56 54 53 53 52 51 51 51 51 50 48 47 45 45 43 40 37 36 36 37 39 40 41 41 41 40 39 37 36 35 34 33 33 33 32 32 33 33 33 32 32 31 30 29 28 28 27 27 27 27 27 26 26 26 26 25
10 11 11 12 14 18 23 27 31 33 33 34 34 35 37 39 41 42 43 41 39 37 38 44 50 56 59 61 61 60 58 56 55 53 51 50 50 50 49 49 48 47 45 44 42 38 34 32 31 32 33 34 35 35 36 35 35 34 33 32 31 30 30 30 29 29 28 28 28 28 28 27 27 26 26 26 25 25 24 23 23 22 21 21 21 20
6 8 8 8 8 11 17 23 29 33 34 34 34 35 37 39 40 42 43 43 42 38 36 42 50 55 58 60 61 61 60 58 56 54 51 51 50 49 48 48 48 47 44 43 42 40 37 33 31 30 30 30 30 30 30 30 30 31 31 30 29 29 29 28 28 28 27 27 27 27 26 26 25 25 24 23 23 22 21 20 20 19 19 19 19 18
4 5 6 5 5 6 10 17 24 30 34 35 35 36 38 39 40 42 44 46 45 41 37 43 51 56 58 59 60 62 62 60 58 56 53 52 50 48 47 48 48 44 40 39 39 39 38 34 32 31 30 28 28 27 27 26 27 27 28 28 28 28 28 28 27 27 27 27 27 26 26 25 24 23 22 22 21 20 20 19 19 19 19 19 19 19
4 4 4 4 5 6 8 12 18 25 32 36 38 38 40 41 41 42 43 44 44 42 40 45 52 58 59 60 62 63 64 63 60 57 55 53 49 45 44 45 44 41 37 34 33 34 34 33 32 31 30 28 27 26 25 25 25 25 26 26 26 26 26 26 26 26 26 26 25 25 24 24 23 22 21 20 20 19 19 19 19 19 19 19 19 20
4 3 3 3 4 6 8 10 14 20 30 37 40 41 42 42 42 41 41 42 41 41 43 47 53 58 60 61 63 64 64 62 59 56 54 50 45 41 40 40 39 38 35 33 31 29 28 28 29 29 29 29 27 26 25 24 25 25 25 25 25 24 24 24 24 24 24 24 23 23 22 22 21 20 20 19 19 18 18 18 18 18 18 18 19 19
4 3 2 1 2 5 8 9 11 15 25 36 42 44 45 44 42 41 40 40 40 42 46 50 55 58 59 59 59 58 57 54 51 49 47 45 41 38 36 36 35 34 33 33 31 29 27 25 25 26 28 28 28 27 25 25 24 24 24 24 24 23 23 22 22 22 22 22 21 21 21 20 20 19 19 18 18 18 18 18 18 18 18 18 19 19
4 3 2 1 1 4 7 9 9 11 19 32 43 47 47 45 43 42 40 40 42 45 50 55 58 58 57 54 51 48 46 43 41 39 39 39 37 35 33 33 31 30 30 30 30 29 28 27 26 25 26 27 28 28 27 26 25 24 24 24 24 23 22 22 22 21 21 21 21 20 20 19 19 18 18 18 18 18 18 18 18 18 19 19 20 20
4 4 3 2 1 3 7 10 10 10 13 25 39 48 49 47 44 42 41 42 45 50 55 58 59 58 54 49 44 40 37 35 34 33 33 33 32 31 30 30 29 28 27 28 28 28 28 28 28 27 26 26 27 28 28 27 27 26 25 24 24 23 23 22 22 21 21 21 21 20 20 19 19 19 19 18 18 18 18 19 19 19 20 21 21 22
5 4 3 2 1 3 6 9 11 12 12 19 31 43 49 49 47 44 43 43 47 52 56 57 56 53 48 43 39 35 33 32 31 30 30 29 29 28 28 28 28 27 26 26 26 27 28 28 29 28 28 27 26 26 27 27 27 27 26 25 24 23 23 23 22 22 22 22 21 21 21 21 20 20 20 20 20 20 20 20 21 21 22 23 23 24
7 5 4 3 2 2 5 8 12 13 13 15 22 33 44 49 49 48 47 45 45 48 51 52 50 46 41 37 35 34 33 32 30 29 28 27 27 27 27 28 29 29 28 27 26 25 26 27 27 27 27 27 26 25 25 25 25 25 25 25 24 24 24 23 23 23 23 22 22 22 22 22 22 22 22 22 22 22 22 23 23 23 24 25 26 26
8 7 6 5 3 2 4 7 11 13 15 15 17 24 34 42 47 49 49 47 44 44 47 47 44 40 36 34 34 34 33 31 28 27 26 26 27 28 29 29 29 30 30 29 27 26 25 25 25 24 24 24 24 24 24 23 23 23 24 24 24 25 25 24 24 24 23 23 23 23 23 23 24 24 24 24 24 24 24 24 25 26 26 27 28 28
10 9 8 6 5 4 4 6 10 13 15 16 17 19 24 32 39 43 46 47 45 43 44 44 42 39 37 37 36 35 32 30 28 27 27 27 29 30 32 32 31 30 30 30 29 28 26 25 24 23 23 23 22 22 22 22 22 23 23 24 24 25 24 24 24 24 24 24 24 24 24 24 24 25 25 25 25 25 25 26 26 27 28 29 29 30
11 10 10 8 7 5 4 5 8 11 15 17 17 18 20 25 30 35 39 42 43 43 43 43 43 43 44 43 41 38 34 31 30 30 32 33 33 33 34 35 34 33 31 30 30 29 28 26 25 24 24 24 23 23 23 23 23 23 24 24 24 24 24 24 24 24 25 25 25 25 25 25 25 26 26 26 26 26 26 26 27 28 28 29 29 30
12 12 11 10 9 7 6 5 7 10 12 15 17 18 19 22 25 29 33 35 38 39 40 40 40 41 43 43 42 38 35 33 32 34 38 40 39 38 38 38 37 35 33 32 31 30 29 28 27 26 26 25 25 25 24 24 24 24 25 25 25 25 25 25 25 25 25 25 25 25 25 25 26 26 26 27 27 27 27 27 27 27 27 27 28 28
11 12 12 11 10 9 7 6 7 8 10 12 15 17 19 21 23 25 28 31 33 35 36 35 34 33 33 33 33 32 30 30 30 31 35 38 40 40 38 36 35 33 32 32 31 31 31 30 29 29 28 27 26 26 25 25 25 24 24 24 24 24 25 25 25 24 24 24 24 24 24 25 26 26 27 27 27 27 27 27 26 26 26 26 26 26
11 12 12 12 11 10 9 8 7 8 9 10 12 14 17 20 22 24 26 29 31 33 34 33 31 29 27 26 25 26 26 26 26 26 27 29 31 32 32 30 28 28 28 28 29 29 30 30 30 29 29 28 28 27 26 26 25 25 24 24 24 24 24 24 24 24 24 23 23 23 24 24 25 26 27 27 27 27 27 26 26 26 26 26 26 26
10 11 11 12 12 11 10 9 8 8 8 9 10 12 14 17 20 23 25 27 30 32 34 33 32 29 26 24 23 23 23 24 24 24 24 24 25 25 25 24 24 24 25 26 27 28 29 29 29 29 29 29 29 29 28 27 26 26 25 25 25 25 25 24 24 24 24 24 23 24 25 25 26 27 27 28 27 27 27 27 27 27 27 27 27 27
9 10 11 11 12 12 11 11 10 9 9 9 10 10 12 14 17 20 23 26 28 30 32 33 33 31 28 25 22 21 22 23 24 24 24 24 24 24 23 23 22 23 23 24 26 27 28 28 28 28 28 29 29 29 28 28 28 27 26 26 26 25 25 25 25 25 26 25 25 26 27 27 28 28 28 28 28 28 28 29 29 29 30 30 30 30
8 9 10 11 12 12 12 12 11 11 10 10 10 11 11 12 14 16 19 22 25 27 30 31 31 31 30 27 24 21 21 21 22 23 24 24 24 24 23 23 22 22 22 22 23 24 25 25 25 26 26 26 27 27 27 27 27 27 27 26 26 25 25 25 26 27 27 28 28 28 28 29 29 29 29 29 29 30 30 31 31 32 32 32 32 32
7 8 9 10 11 12 13 13 12 12 12 11 11 12 12 12 12 13 15 18 20 23 25 27 28 29 30 29 27 24 22 21 21 22 23 23 24 24 23 23 22 22 22 22 22 22 22 22 22 22 23 24 24 24 24 25 26 26 26 25 25 25 25 25 26 27 27 28 29 29 29 29 30 30 30 30 30 31 32 32 33 33 33 33 33 33
6 7 8 9 10 11 12 13 13 13 13 13 13 13 13 13 12 13 13 15 16 18 20 22 24 26 28 29 28 27 25 23 22 21 22 23 23 23 23 23 22 22 22 22 22 22 21 21 21 21 22 22 23 23 23 24 24 24 24 24 24 24 24 25 25 26 26 27 27 28 28 29 29 30 30 30 31 32 32 32 33 33 33 33 32 32
5 6 7 8 9 10 11 12 13 13 13 13 13 13 14 14 13 13 13 14 14 15 17 18 20 22 24 26 27 28 27 25 24 23 22 22 23 23 23 23 22 22 22 22 22 23 22 22 23 23 23 24 24 25 25 25 24 24 23 23 23 23 23 24 24 24 25 26 26 27 27 28 29 30 30 31 31 31 32 32 32 32 32 31 30 30
Wind_Direction
224 222 222 222 223 224 225 225 224 224 225 226 227 229 232 235 238 240 241 242 242 242 242 241 239 236 234 231 229 227 226 226 226 226 226 227 227 227 227 226 226 226 225 225 224 224 223 223 223 224 225 226 227 228 229 229 228 228 228 228 228 229 229 229 229 229 230 230 231 232 233 234 233 233 233 234 235 236 237 239 240 240 239 239 238 238
225 224 222 223 224 226 227 227 227 227 227 228 229 230 231 234 237 239 241 241 242 243 243 242 241 239 236 233 231 229 227 227 226 226 226 227 227 227 227 227 227 226 226 226 225 224 223 223 223 224 225 226 226 227 228 229 229 229 229 229 230 230 230 230 230 230 231 231 232 233 234 235 235 234 234 234 234 235 236 237 239 240 239 238 237 237
227 225 223 223 224 226 227 228 229 229 230 231 231 232 233 235 237 239 240 241 242 242 242 242 242 240 238 235 233 230 228 227 227 227 227 227 226 227 227 227 227 227 227 227 226 225 224 224 223 224 225 225 226 226 227 228 228 229 229 230 230 230 231 231 231 231 232 232 233 234 235 236 236 235 234 233 233 234 234 234 236 238 238 238 237 237
227 225 224 223 224 225 227 228 228 230 231 233 233 233 234 235 236 237 238 239 240 241 241 242 242 241 239 237 234 232 230 228 228 227 227 227 226 226 226 227 227 227 227 227 227 227 226 225 224 224 224 224 225 226 227 227 228 228 229 229 230 231 231 232 232 232 232 233 233 234 235 236 236 236 234 233 233 232 230 229 231 234 236 236 237 237
227 224 223 222 223 224 226 226 227 228 230 232 233 232 232 232 233 234 235 237 239 240 241 241 241 240 239 238 235 233 230 229 228 228 227 227 227 226 226 226 227 227 227 228 228 227 227 227 226 225 225 224 224 225 226 227 228 228 229 229 230 231 232 232 233 233 233 233 233 234 235 235 235 235 235 234 233 230 225 219 221 228 233 235 237 238
228 224 222 221 221 222 223 224 224 225 227 228 229 228 227 227 228 230 233 236 238 240 240 240 240 239 239 237 235 233 231 229 229 228 228 227 227 226 226 226 227 227 228 228 228 228 228 228 227 227 226 226 225 225 226 227 228 229 229 230 231 231 232 232 232 232 232 232 232 233 234 234 234 234 235 234 232 227 220 213 216 225 232 236 238 239
230 225 222 221 221 221 221 221 221 221 221 222 222 220 219 220 222 225 230 235 238 239 240 240 240 239 238 237 234 232 230 229 229 228 228 227 227 227 226 226 227 227 227 228 228 228 228 228 228 228 227 227 227 226 226 227 228 229 230 231 231 232 232 232 232 232 232 232 232 233 234 234 234 234 235 233 230 224 217 214 218 227 234 238 240 240
233 228 224 222 221 220 219 219 218 217 216 215 214 212 213 214 216 218 222 230 236 238 239 240 240 239 238 236 234 231 230 229 229 228 228 228 227 227 227 226 227 227 227 228 228 228 229 229 228 228 228 228 228 228 227 227 228 229 230 231 231 232 232 232 232 232 232 232 233 233 234 234 234 234 234 232 228 223 218 218 224 231 237 240 240 240
235 231 227 224 222 220 219 217 215 213 211 209 207 206 208 210 210 210 213 223 231 235 236 238 239 239 238 236 234 231 229 228 228 228 228 228 227 227 227 227 227 227 227 227 228 228 229 229 229 229 229 228 228 228 228 228 228 229 230 231 231 232 232 232 232 232 232 233 233 233 232 232 232 233 233 231 228 225 224 226 231 235 238 238 237 236
235 233 230 226 224 221 219 217 213 210 208 205 203 202 204 205 205 204 204 215 225 231 233 235 237 239 238 236 233 231 229 228 227 227 227 227 227 227 227 227 227 227 227 227 228 228 228 229 229 229 229 229 228 228 228 227 228 228 229 230 231 231 232 232 232 233 233 233 233 231 229 228 229 230 231 231 230 229 229 232 234 236 235 234 233 233
234 233 231 228 225 223 220 217 213 209 206 203 201 199 200 202 201 198 196 206 219 227 230 231 234 236 236 235 233 231 229 227 227 226 226 226 226 226 226 226 226 226 226 227 227 228 228 228 229 229 229 229 229 229 228 227 227 227 228 228 229 230 230 231 232 233 233 231 229 227 226 226 227 228 229 230 230 230 230 231 232 231 231 230 230 230
233 231 230 229 226 224 221 218 214 209 206 204 201 199 199 199 197 195 193 198 211 222 227 228 230 232 233 233 231 230 229 227 227 226 226 226 225 225 225 225 225 225 225 226 226 226 227 227 227 228 228 229 230 230 229 228 227 227 227 227 227 228 229 230 231 231 229 227 224 222 221 224 227 227 227 226 225 224 224 224 225 226 226 227 228 229
233 231 229 228 226 224 222 219 215 211 208 206 203 201 199 199 198 196 194 195 204 215 224 226 227 228 229 229 228 228 228 228 227 227 226 226 226 225 225 224 224 224 225 225 225 225 225 225 226 226 227 228 229 229 229 229 228 227 226 226 226 227 228 229 229 227 221 217 215 215 217 221 225 227 226 223 221 220 220 221 223 224 224 225 226 228
233 230 228 226 225 224 222 219 217 213 210 207 205 203 201 201 201 200 199 195 199 208 219 224 225 224 224 224 224 224 225 226 226 226 226 226 226 226 225 225 225 225 225 224 224 224 224 224 224 224 225 226 227 228 228 229 228 227 227 227 227 228 229 231 229 224 216 211 209 210 215 219 223 225 225 222 220 220 220 221 223 223 223 224 225 226
233 229 227 225 223 222 221 220 218 215 212 209 207 205 203 204 204 205 203 199 196 201 212 221 223 223 222 220 220 221 222 223 223 224 224 225 226 226 226 226 225 225 225 225 225 225 225 224 223 223 223 224 225 225 226 226 227 227 227 228 228 230 232 233 232 226 217 211 207 206 211 217 221 223 222 220 219 219 220 221 222 222 223 223 224 226
233 230 227 225 223 221 220 219 218 216 213 210 208 207 206 206 207 208 207 203 197 198 206 215 220 221 220 219 219 218 219 220 221 221 221 221 223 225 226 225 225 225 225 225 225 225 225 224 224 223 223 223 224 224 225 225 225 225 226 227 229 230 232 234 232 227 218 211 207 206 210 215 219 220 220 219 218 217 218 219 221 222 222 223 225 226
236 232 229 227 224 222 220 218 217 215 213 210 208 207 207 207 208 209 210 207 203 200 202 210 217 220 218 217 217 217 217 217 218 219 217 216 218 221 224 224 224 224 224 225 225 225 226 225 224 223 223 223 224 224 225 225 225 225 225 226 227 228 230 232 231 226 218 212 208 208 211 217 220 222 223 221 218 216 216 218 219 221 222 224 226 227
240 236 232 229 226 224 221 220 218 216 213 210 208 208 208 207 208 209 210 210 209 206 203 207 215 221 220 218 217 217 217 214 214 216 216 215 215 217 219 221 222 222 222 223 224 224 224 224 223 222 221 222 222 223 224 225 225 224 224 225 225 226 228 229 229 226 221 216 212 212 215 220 224 225 224 221 217 214 213 214 216 218 220 222 226 229
244 239 236 232 228 225 222 220 219 217 214 212 209 208 208 208 208 209 210 213 214 213 208 206 212 219 223 222 221 220 218 214 212 213 214 215 215 215 216 217 219 219 220 221 222 222 222 222 221 220 219 217 216 218 220 221 221 221 221 222 224 224 225 226 227 226 225 222 219 217 217 220 222 222 220 217 214 211 210 210 212 214 218 223 228 232
246 243 239 235 231 227 224 221 219 217 215 213 210 209 208 208 208 209 211 214 217 218 215 209 210 215 222 223 223 222 220 215 212 212 214 215 216 215 215 215 215 215 215 217 219 219 218 217 216 215 215 214 214 215 215 214 213 214 216 218 220 222 223 224 226 227 227 226 224 222 220 217 215 213 211 210 209 209 208 210 213 217 223 229 234 236
247 245 241 237 233 230 226 223 220 218 216 214 211 210 209 209 209 210 211 214 217 221 221 214 211 214 219 221 222 222 221 217 213 211 212 214 216 216 217 216 215 213 212 212 214 215 214 214 213 212 211 212 212 212 212 211 210 210 211 214 216 218 220 222 224 226 226 225 223 220 216 213 211 211 211 212 214 216 217 220 223 228 232 235 236 238
247 245 242 238 235 232 229 225 222 219 216 214 212 210 210 209 210 211 212 214 217 221 224 218 213 213 217 220 221 222 222 220 215 212 212 213 214 216 217 217 216 214 212 211 210 210 210 211 211 210 209 210 210 210 210 210 210 211 211 212 214 216 218 220 222 223 223 222 220 217 215 215 217 219 222 226 228 230 229 230 231 232 234 235 237 238
246 245 243 240 236 233 230 227 223 220 217 214 212 211 210 209 210 211 212 213 216 221 225 222 216 213 215 219 221 222 223 221 218 215 213 213 214 215 216 216 216 215 214 214 212 210 209 209 209 209 208 209 210 210 210 210 211 212 212 213 214 215 217 218 220 221 222 222 221 221 222 225 227 230 232 234 235 235 235 235 233 233 234 236 238 239
247 246 244 241 238 235 231 228 224 221 217 215 213 211 210 209 209 210 211 213 215 220 225 225 218 212 214 217 220 221 222 222 220 217 215 215 216 217 217 216 216 215 215 216 215 213 211 210 210 210 209 209 210 210 211 211 212 213 215 216 217 218 219 220 221 223 224 226 227 230 232 233 235 236 237 237 238 238 237 236 235 235 236 237 238 239
248 248 246 244 241 237 233 229 225 221 218 216 213 211 209 208 208 209 210 212 215 219 224 224 217 212 212 215 218 220 221 221 220 218 216 216 218 219 219 218 217 216 216 216 216 215 214 214 213 213 212 211 210 211 212 212 213 214 215 217 219 222 224 225 227 228 230 233 236 238 240 241 241 241 241 240 239 238 237 236 236 236 236 237 237 238
249 249 249 247 245 241 236 231 226 222 219 216 213 210 207 206 206 207 208 210 214 219 223 220 214 210 212 214 217 218 220 220 220 219 217 217 218 219 221 221 220 219 217 216 215 215 215 215 216 216 216 214 213 212 212 213 213 213 214 216 218 221 224 227 229 231 233 236 239 242 244 245 245 243 241 239 237 236 235 234 234 234 234 235 235 235
252 253 253 251 249 244 239 234 228 224 220 216 213 209 206 205 204 204 204 208 213 218 219 214 209 207 210 214 216 217 218 219 219 219 218 217 217 219 220 222 223 222 219 216 214 212 211 211 213 214 215 214 213 212 212 212 212 212 212 213 215 217 219 222 224 226 229 231 234 237 239 241 241 240 237 235 234 233 233 233 233 233 233 233 234 235
253 255 256 255 252 248 242 236 230 225 220 216 212 208 206 205 203 202 202 208 213 215 213 207 203 204 208 212 215 216 216 217 217 217 217 217 217 218 220 221 223 222 219 215 211 207 204 204 205 207 208 209 209 209 209 209 209 209 210 211 212 213 215 216 218 219 221 224 227 229 231 233 233 233 232 232 232 232 233 233 233 234 234 234 234 235
250 251 254 255 254 249 243 237 231 226 221 215 211 208 207 206 204 203 204 209 213 212 208 203 201 203 207 211 214 214 214 215 216 216 215 215 215 217 218 219 220 219 215 209 205 201 197 197 197 198 201 203 204 204 205 206 206 207 208 209 210 211 213 214 215 215 217 219 221 223 225 226 227 227 229 230 231 232 233 233 233 233 232 232 232 232
251 248 248 251 251 247 241 235 229 225 221 215 211 209 209 209 206 205 207 212 215 215 209 202 199 202 206 210 212 213 213 213 213 213 213 212 212 213 214 214 214 214 211 205 200 196 194 193 194 195 198 201 202 203 205 206 208 209 210 210 211 212 213 215 216 217 218 219 221 222 223 223 224 225 227 229 230 230 230 229 228 227 226 225 225 226
258 249 245 243 242 238 233 227 223 221 219 215 211 210 211 211 208 207 208 212 218 220 214 201 197 199 205 209 211 211 211 210 210 209 209 208 208 208 208 208 208 209 209 207 204 200 196 194 194 197 201 203 205 208 210 212 213 213 213 213 213 213 214 215 216 217 219 220 221 221 222 223 223 224 225 226 226 225 224 222 221 220 219 219 220 221
270 253 243 234 222 214 214 214 214 214 215 214 212 211 212 212 210 208 209 212 218 221 217 202 195 197 203 209 212 212 210 207 205 204 203 202 202 202 202 203 204 205 206 209 211 210 206 201 199 201 204 206 208 210 212 213 214 214 213 212 212 213 214 215 215 216 217 218 218 218 218 219 219 220 220 220 220 219 219 218 218 218 218 219 220 222
285 267 246 229 208 193 190 195 200 205 210 213 213 212 211 212 211 209 210 212 216 220 218 205 197 197 202 208 212 212 210 205 201 198 197 195 194 194 196 200 201 200 200 203 209 214 216 214 211 209 207 206 205 205 206 206 207 207 207 207 208 210 211 212 212 212 213 213 212 212 212 212 212 212 212 213 213 213 214 216 217 218 219 221 222 224
298 287 265 234 203 187 181 183 189 197 204 209 211 211 210 209 209 209 209 212 215 217 214 205 199 198 201 204 207 206 204 199 194 191 190 188 186 186 189 194 197 197 195 196 199 204 210 215 216 213 209 204 201 198 197 196 196 196 196 198 200 202 203 204 205 205 205 205 204 205 205 205 205 205 205 206 207 209 211 213 216 219 221 223 225 226
299 298 288 254 196 183 181 181 185 193 199 202 206 208 208 207 206 207 209 211 213 213 209 203 200 199 199 198 197 195 191 188 186 184 184 183 181 180 183 188 192 194 194 196 195 194 194 200 206 208 205 200 195 191 190 188 186 186 187 189 190 192 193 195 195 196 196 196 196 197 198 198 199 199 200 202 204 206 209 212 215 218 221 223 225 227
291 296 294 281 187 176 178 181 185 191 196 197 199 201 203 204 205 206 208 209 209 207 203 199 197 196 195 193 190 186 184 183 182 182 182 181 180 180 181 185 188 191 194 196 195 191 187 188 192 196 197 194 190 187 185 182 181 181 182 183 184 185 186 187 188 189 189 190 191 192 193 194 195 197 199 201 204 206 210 213 216 219 222 224 226 228
274 281 284 278 193 166 172 178 182 188 193 192 193 194 197 200 202 205 207 207 205 201 197 194 193 192 191 189 188 186 186 185 185 185 183 182 182 182 183 184 186 189 192 194 193 189 185 183 183 185 188 189 187 184 181 179 179 179 181 182 182 182 183 185 186 187 188 189 191 192 193 194 196 198 200 202 205 208 211 214 217 220 223 226 228 229
258 265 270 266 218 165 164 171 177 184 189 188 187 188 191 196 199 202 204 204 200 195 191 190 189 189 188 188 187 187 186 185 184 183 183 182 183 185 186 185 185 186 188 190 189 186 183 181 179 179 181 182 182 181 179 178 178 179 181 181 182 182 184 186 188 189 191 192 193 195 195 196 197 199 201 203 206 209 213 216 220 223 225 228 229 231
248 254 258 258 238 172 157 163 171 178 186 187 183 183 186 190 195 198 200 200 196 191 188 187 187 187 187 186 185 183 181 179 179 180 181 182 183 186 188 187 185 184 183 183 183 182 182 181 179 178 178 178 178 178 178 179 179 180 181 181 182 184 186 187 189 191 193 194 196 197 198 199 200 201 203 205 207 211 214 217 220 223 227 230 232 234
242 245 250 251 242 200 161 158 164 173 180 185 183 179 180 183 188 192 195 196 193 188 186 186 186 188 189 189 187 183 180 180 181 184 186 187 187 188 189 189 187 184 181 180 179 179 181 182 182 182 181 180 180 180 181 182 184 184 183 184 185 187 188 189 190 192 194 196 198 199 201 202 203 205 206 208 210 213 216 219 221 223 226 229 233 235
238 240 243 245 240 220 181 160 160 167 174 180 182 179 176 177 180 184 188 190 188 185 185 186 188 191 194 195 192 189 188 189 192 196 198 197 194 192 190 190 188 185 182 179 178 179 180 182 184 185 187 188 188 189 189 191 192 192 191 191 192 192 192 192 193 195 197 199 200 202 203 205 206 208 210 212 215 218 221 223 224 226 227 230 233 236
236 236 238 238 237 228 203 170 161 163 169 175 179 180 178 176 176 178 180 181 181 182 184 187 189 190 190 190 190 190 192 196 200 203 204 203 200 196 192 190 188 186 184 181 179 179 181 183 186 189 192 194 196 197 199 201 202 202 202 201 201 200 199 199 200 201 203 204 205 206 208 209 211 212 215 218 221 224 226 228 229 230 231 233 236 239
234 233 233 234 234 229 215 189 169 163 165 170 175 178 179 178 178 177 177 177 178 179 181 183 185 185 183 182 182 183 187 191 196 200 201 199 198 196 194 191 190 188 186 184 183 183 184 186 189 192 195 197 198 200 202 204 206 208 209 210 210 209 208 208 208 208 209 210 212 213 214 216 217 218 220 223 225 227 229 230 231 232 234 235 238 240
231 230 230 231 231 229 222 205 185 172 167 166 169 173 176 178 179 179 179 178 176 175 174 174 174 175 175 174 174 175 177 181 186 191 193 194 194 193 192 191 190 189 188 187 187 187 188 189 190 192 194 195 197 199 200 202 204 207 209 210 211 212 212 212 212 211 212 213 215 217 218 220 221 222 224 225 227 228 229 230 231 232 234 236 238 240
231 229 228 228 228 227 224 216 202 186 177 171 169 170 172 175 178 179 180 179 176 173 170 169 169 171 174 175 175 174 175 176 177 180 183 185 187 188 187 186 186 187 187 187 187 188 189 191 193 194 195 197 198 199 200 200 201 203 204 206 207 208 209 209 209 209 210 212 214 216 218 220 221 223 224 226 227 228 229 230 231 233 234 236 239 241
232 228 226 225 225 225 224 220 212 201 191 183 176 172 171 172 175 177 179 179 178 175 172 170 170 172 177 183 186 186 184 183 182 180 179 179 180 181 183 185 187 188 187 187 187 188 191 194 197 199 201 202 204 205 205 204 204 204 204 205 206 207 207 207 207 207 208 210 213 215 218 220 221 223 225 227 228 229 231 232 234 235 237 239 242 244
232 226 224 222 222 222 222 221 217 211 203 196 189 182 176 172 172 174 176 178 179 178 175 173 172 173 177 182 188 191 190 187 185 183 181 181 182 183 185 188 190 190 189 189 189 190 192 196 199 202 205 207 209 210 211 211 210 210 210 209 209 209 210 209 209 209 211 213 215 218 220 222 224 226 228 230 231 233 235 237 238 240 242 244 246 248
232 226 222 220 219 219 220 220 219 216 211 206 200 193 186 179 174 172 173 176 178 179 179 177 176 175 177 180 185 189 189 186 183 180 180 181 183 185 187 188 189 189 188 188 189 190 193 196 199 202 206 209 211 213 214 215 215 215 214 214 213 213 214 214 213 214 215 218 220 222 224 226 229 231 233 235 237 239 240 242 243 245 247 248 250 252
234 227 222 219 217 217 218 219 219 217 214 211 207 202 196 189 182 176 173 173 175 177 179 180 179 179 179 180 184 187 188 187 184 182 181 182 184 185 186 187 188 188 188 188 189 190 192 195 198 201 205 208 211 213 215 215 215 214 214 214 214 215 216 216 217 218 220 223 225 227 229 231 234 236 238 240 242 244 245 246 247 248 250 251 252 253
236 229 224 218 215 215 216 217 218 218 217 215 211 208 203 198 192 185 179 175 174 174 176 178 179 180 181 182 184 186 188 189 188 187 186 187 188 189 189 189 190 190 191 191 192 194 195 197 200 203 206 209 211 213 214 214 213 212 211 211 212 214 215 217 220 222 224 227 229 231 233 235 237 239 241 243 244 246 247 248 248 249 250 251 252 253
236 231 225 219 215 214 215 216 217 217 217 216 214 211 208 204 200 194 188 182 177 175 175 176 178 180 182 183 185 186 189 190 192 192 192 193 193 193 194 194 194 194 195 196 197 198 200 202 204 205 207 210 213 214 214 213 212 211 210 211 212 214 216 219 222 225 228 230 233 235 237 239 240 242 244 245 246 247 248 248 249 249 249 250 251 251
Height
2963 2965 2968 2970 2971 2972 2973 2976 2978 2981 2982 2984 2987 2989 2991 2993 2995 2997 2999 3001 3002 3004 3006 3008 3010 3012 3014 3017 3019 3021 3023 3025 3027 3028 3030 3032 3034 3036 3038 3041 3043 3045 3048 3050 3052 3055 3057 3060 3062 3064 3066 3067 3069 3072 3074 3076 3078 3080 3082 3084 3086 3087 3090 3091 3093 3094 3096 3098 3099 3101 3102 3103 3104 3106 3107 3108 3110 3111 3112 3112 3113 3114 3116 3117 3119 3120
2960 2962 2965 2967 2968 2969 2971 2973 2976 2978 2980 2982 2984 2987 2989 2991 2993 2995 2997 2998 3000 3002 3003 3005 3007 3008 3011 3013 3016 3018 3020 3022 3024 3026 3027 3029 3031 3033 3036 3038 3040 3042 3045 3047 3049 3052 3054 3057 3059 3061 3063 3065 3067 3068 3071 3073 3076 3078 3080 3082 3083 3085 3087 3088 3090 3092 3093 3095 3097 3098 3099 3100 3101 3103 3105 3106 3107 3109 3110 3111 3111 3112 3114 3115 3117 3118
2957 2960 2962 2963 2965 2966 2968 2971 2974 2976 2977 2980 2982 2985 2987 2989 2991 2993 2995 2996 2997 2999 3000 3002 3003 3005 3007 3010 3012 3015 3017 3019 3021 3023 3025 3027 3029 3031 3033 3035 3037 3039 3042 3044 3046 3048 3051 3053 3056 3058 3061 3063 3065 3066 3068 3070 3073 3075 3077 3079 3081 3082 3084 3086 3087 3089 3090 3092 3094 3095 3096 3097 3099 3100 3102 3103 3104 3106 3107 3108 3109 3110 3111 3113 3114 3116
2954 2957 2958 2960 2962 2963 2966 2968 2971 2973 2975 2977 2980 2983 2985 2987 2988 2990 2992 2994 2995 2996 2997 2998 3000 3001 3003 3006 3009 3012 3014 3016 3018 3020 3022 3024 3026 3028 3030 3032 3034 3036 3038 3041 3043 3045 3047 3050 3052 3055 3057 3060 3062 3064 3066 3068 3070 3072 3074 3076 3078 3079 3081 3082 3084 3086 3087 3090 3092 3092 3093 3094 3096 3097 3099 3100 3101 3103 3104 3106 3107 3107 3108 3110 3112 3113
2951 2953 2955 2957 2959 2961 2963 2966 2969 2971 2973 2975 2978 2980 2982 2984 2986 2988 2990 2992 2993 2994 2995 2996 2996 2997 3000 3003 3006 3009 3011 3013 3015 3017 3019 3021 3023 3025 3027 3029 3031 3033 3036 3038 3040 3042 3044 3047 3049 3051 3054 3056 3058 3061 3063 3065 3067 3069 3071 3073 3075 3077 3078 3079 3081 3082 3085 3087 3088 3089 3090 3092 3093 3094 3095 3097 3099 3101 3103 3104 3104 3105 3106 3107 3109 3111
2947 2949 2952 2954 2956 2958 2960 2963 2966 2968 2971 2972 2975 2977 2980 2982 2984 2986 2987 2989 2990 2991 2992 2992 2992 2994 2997 3000 3002 3005 3008 3010 3012 3014 3016 3018 3020 3022 3024 3026 3028 3031 3033 3035 3037 3039 3042 3044 3046 3048 3050 3052 3055 3057 3059 3062 3064 3066 3068 3070 3072 3074 3075 3077 3078 3080 3082 3084 3085 3086 3087 3088 3090 3091 3093 3095 3097 3099 3101 3102 3102 3102 3103 3105 3107 3108
2944 2946 2949 2951 2953 2955 2958 2961 2963 2965 2968 2970 2972 2975 2977 2980 2982 2984 2985 2987 2988 2989 2990 2989 2989 2991 2994 2997 2999 3002 3004 3007 3009 3011 3013 3015 3017 3019 3021 3023 3026 3028 3030 3032 3034 3036 3038 3041 3043 3045 3047 3049 3052 3054 3056 3058 3061 3063 3065 3067 3069 3071 3073 3074 3076 3077 3079 3081 3082 3083 3084 3085 3087 3088 3091 3092 3094 3096 3097 3098 3099 3100 3101 3103 3105 3106
2941 2943 2946 2948 2950 2952 2955 2957 2960 2962 2965 2967 2970 2972 2975 2977 2979 2981 2983 2986 2987 2987 2987 2987 2987 2989 2991 2993 2996 2998 3001 3003 3006 3008 3010 3012 3014 3016 3018 3021 3023 3025 3027 3029 3032 3033 3036 3038 3040 3042 3044 3047 3048 3051 3053 3055 3057 3059 3062 3064 3066 3068 3070 3071 3073 3075 3076 3077 3078 3080 3081 3082 3084 3086 3087 3089 3091 3092 3094 3095 3096 3097 3099 3101 3102 3104
2939 2941 2943 2945 2947 2949 2952 2954 2957 2960 2962 2965 2967 2970 2972 2975 2977 2978 2980 2983 2985 2985 2985 2984 2985 2986 2988 2990 2993 2995 2998 3000 3003 3005 3007 3009 3011 3013 3016 3018 3020 3022 3024 3027 3029 3031 3033 3035 3037 3039 3042 3044 3046 3048 3050 3052 3054 3057 3059 3061 3063 3065 3067 3068 3070 3071 3072 3074 3075 3077 3079 3080 3081 3083 3084 3085 3087 3088 3090 3092 3094 3095 3097 3099 3101 3102
2936 2938 2940 2942 2944 2947 2949 2952 2954 2957 2960 2962 2965 2967 2970 2972 2974 2976 2977 2981 2982 2982 2982 2982 2983 2984 2986 2988 2990 2992 2994 2997 2999 3002 3004 3006 3008 3011 3013 3015 3017 3019 3021 3024 3026 3028 3030 3032 3034 3037 3039 3041 3043 3045 3047 3049 3051 3053 3056 3058 3060 3062 3063 3065 3067 3068 3070 3071 3073 3074 3076 3077 3077 3079 3080 3082 3083 3085 3087 3089 3091 3093 3095 3097 3098 3100
2933 2935 2937 2940 2942 2944 2947 2949 2952 2955 2957 2960 2962 2965 2967 2970 2972 2973 2975 2978 2980 2980 2980 2980 2981 2982 2983 2986 2987 2989 2991 2994 2996 2998 3001 3003 3005 3008 3010 3012 3014 3016 3019 3021 3023 3025 3027 3029 3032 3034 3036 3038 3040 3042 3044 3047 3048 3050 3053 3055 3057 3059 3061 3062 3064 3066 3067 3069 3070 3071 3072 3073 3074 3076 3077 3079 3081 3083 3084 3086 3088 3090 3092 3094 3096 3097
2931 2933 2935 2937 2939 2942 2944 2947 2949 2952 2955 2957 2960 2962 2965 2967 2969 2971 2972 2975 2977 2979 2977 2978 2979 2981 2982 2984 2985 2987 2989 2991 2993 2995 2997 3000 3002 3005 3007 3009 3012 3014 3016 3018 3021 3022 3024 3027 3029 3031 3033 3035 3037 3039 3041 3043 3045 3047 3049 3052 3054 3056 3058 3060 3062 3063 3065 3066 3067 3068 3069 3070 3071 3073 3075 3077 3079 3081 3082 3084 3086 3088 3090 3092 3093 3095
2929 2931 2932 2934 2937 2939 2942 2944 2947 2950 2952 2954 2957 2959 2962 2964 2966 2967 2969 2971 2975 2978 2976 2976 2977 2979 2980 2982 2984 2986 2987 2989 2990 2992 2995 2997 3000 3002 3004 3006 3009 3011 3013 3015 3018 3020 3022 3024 3026 3028 3030 3032 3034 3036 3038 3040 3042 3045 3047 3049 3051 3053 3055 3057 3058 3060 3062 3063 3064 3065 3067 3068 3069 3071 3073 3075 3077 3079 3081 3082 3084 3085 3087 3088 3090 3092
2927 2928 2930 2932 2934 2937 2939 2942 2944 2947 2948 2951 2953 2956 2959 2962 2964 2965 2967 2969 2973 2976 2976 2974 2975 2977 2978 2980 2982 2984 2986 2987 2988 2990 2992 2995 2997 2999 3001 3003 3006 3008 3010 3013 3015 3017 3019 3021 3023 3026 3027 3029 3032 3033 3035 3038 3040 3042 3044 3046 3048 3050 3052 3053 3055 3057 3058 3060 3061 3062 3063 3065 3067 3069 3071 3072 3074 3076 3078 3079 3081 3082 3084 3085 3087 3089
2924 2926 2927 2929 2931 2933 2936 2939 2942 2943 2945 2948 2951 2954 2957 2960 2962 2962 2964 2966 2970 2974 2975 2973 2972 2974 2976 2978 2980 2982 2985 2986 2987 2989 2991 2992 2994 2996 2998 3001 3003 3006 3008 3010 3012 3014 3016 3018 3021 3023 3025 3027 3029 3031 3033 3035 3038 3040 3042 3043 3045 3047 3049 3051 3052 3054 3056 3057 3058 3059 3061 3062 3064 3066 3068 3069 3071 3073 3074 3076 3078 3079 3081 3083 3084 3086
2922 2924 2925 2926 2928 2930 2933 2936 2938 2941 2943 2945 2948 2951 2954 2956 2958 2959 2961 2963 2967 2971 2973 2971 2970 2971 2973 2975 2977 2980 2983 2984 2986 2988 2990 2991 2993 2995 2997 2998 3001 3003 3006 3007 3009 3012 3014 3016 3018 3020 3022 3024 3026 3028 3030 3032 3035 3037 3039 3041 3043 3045 3047 3049 3050 3052 3053 3054 3055 3057 3058 3059 3061 3063 3065 3066 3068 3069 3071 3072 3075 3077 3078 3080 3082 3083
2920 2922 2922 2924 2926 2927 2929 2931 2933 2935 2939 2942 2944 2947 2950 2952 2954 2957 2958 2961 2963 2967 2970 2969 2967 2967 2970 2973 2975 2977 2980 2982 2984 2986 2988 2991 2992 2994 2995 2997 2998 3001 3003 3005 3007 3009 3011 3013 3015 3017 3020 3022 3023 3025 3027 3030 3032 3035 3037 3039 3041 3043 3045 3047 3048 3050 3050 3051 3052 3053 3055 3057 3058 3059 3061 3062 3063 3065 3067 3068 3071 3073 3075 3077 3079 3081
2918 2919 2920 2922 2923 2925 2927 2928 2930 2933 2935 2938 2940 2943 2946 2949 2952 2955 2957 2958 2960 2963 2966 2967 2964 2963 2967 2969 2972 2974 2976 2980 2982 2985 2987 2989 2991 2992 2993 2995 2997 2999 3001 3003 3005 3007 3009 3011 3013 3015 3017 3020 3022 3024 3026 3028 3030 3032 3034 3036 3038 3040 3042 3044 3046 3047 3048 3049 3050 3051 3052 3052 3053 3055 3056 3057 3058 3059 3061 3064 3066 3069 3071 3073 3076 3078
2916 2917 2918 2919 2921 2922 2924 2926 2928 2931 2933 2936 2937 2940 2942 2946 2950 2952 2954 2955 2957 2959 2963 2965 2964 2962 2964 2966 2968 2971 2974 2977 2980 2983 2985 2987 2988 2990 2992 2994 2995 2997 3000 3001 3003 3005 3007 3009 3011 3013 3015 3017 3020 3022 3025 3026 3028 3030 3032 3034 3036 3037 3040 3042 3043 3044 3045 3047 3048 3050 3049 3049 3050 3051 3052 3053 3055 3056 3057 3060 3062 3065 3067 3070 3073 3076
2914 2915 2916 2917 2918 2920 2922 2924 2925 2928 2930 2932 2935 2937 2941 2943 2947 2949 2952 2953 2954 2956 2959 2962 2962 2962 2962 2965 2967 2969 2972 2974 2977 2980 2983 2985 2986 2988 2991 2992 2994 2996 2998 2999 3001 3003 3005 3007 3009 3011 3013 3015 3018 3020 3022 3024 3027 3029 3031 3032 3034 3035 3037 3039 3041 3042 3043 3045 3047 3048 3048 3048 3048 3050 3052 3053 3055 3056 3057 3057 3059 3062 3065 3069 3072 3074
2912 2913 2914 2915 2917 2919 2920 2921 2923 2926 2928 2931 2933 2936 2939 2941 2944 2946 2949 2951 2952 2954 2957 2960 2961 2961 2961 2962 2964 2966 2969 2972 2974 2977 2980 2982 2984 2986 2988 2990 2992 2994 2996 2998 3000 3002 3004 3005 3007 3009 3011 3013 3016 3018 3020 3022 3024 3027 3029 3030 3032 3033 3035 3037 3038 3040 3041 3043 3044 3046 3047 3048 3048 3050 3052 3053 3054 3055 3055 3056 3058 3061 3065 3068 3071 3073
2911 2912 2912 2914 2915 2916 2917 2919 2921 2924 2927 2929 2931 2933 2936 2938 2941 2944 2946 2949 2951 2952 2954 2957 2958 2959 2959 2961 2962 2964 2967 2969 2972 2974 2977 2980 2983 2984 2985 2988 2990 2993 2995 2997 2999 3000 3002 3003 3005 3007 3010 3012 3014 3016 3018 3021 3022 3025 3027 3028 3030 3032 3033 3035 3036 3037 3039 3040 3042 3044 3045 3047 3047 3049 3050 3051 3052 3052 3053 3055 3058 3062 3065 3067 3069 3071
2909 2910 2911 2912 2913 2914 2915 2917 2920 2922 2924 2927 2928 2931 2933 2936 2939 2941 2944 2947 2949 2950 2951 2954 2957 2958 2959 2960 2961 2963 2965 2967 2969 2972 2975 2978 2980 2982 2983 2985 2988 2991 2993 2995 2996 2997 2999 3001 3003 3005 3007 3010 3012 3014 3017 3019 3021 3022 3024 3026 3027 3029 3031 3032 3033 3035 3036 3038 3040 3042 3043 3045 3046 3047 3048 3048 3049 3050 3052 3055 3058 3061 3063 3065 3067 3068
2908 2908 2909 2910 2911 2912 2913 2915 2917 2920 2922 2924 2926 2928 2931 2934 2937 2939 2942 2945 2947 2948 2950 2953 2955 2957 2957 2957 2958 2960 2962 2964 2967 2970 2974 2976 2977 2979 2981 2983 2987 2989 2991 2992 2993 2995 2997 2999 3001 3003 3005 3007 3010 3012 3014 3016 3018 3020 3022 3023 3025 3027 3028 3030 3031 3032 3034 3036 3037 3039 3040 3041 3042 3043 3044 3046 3047 3049 3052 3054 3057 3059 3061 3062 3064 3066
2906 2907 2907 2908 2909 2910 2912 2913 2915 2917 2919 2922 2924 2927 2929 2932 2935 2938 2941 2943 2945 2947 2949 2951 2952 2953 2953 2954 2955 2957 2959 2961 2964 2967 2970 2973 2975 2977 2980 2982 2984 2986 2988 2989 2991 2993 2995 2997 2999 3001 3003 3006 3007 3010 3012 3014 3016 3018 3020 3022 3023 3025 3027 3028 3029 3030 3032 3033 3035 3036 3037 3038 3039 3040 3042 3043 3045 3048 3051 3053 3055 3057 3059 3060 3062 3064
2905 2906 2906 2907 2907 2908 2909 2911 2912 2915 2917 2919 2922 2924 2927 2930 2932 2935 2938 2941 2943 2945 2947 2947 2948 2948 2948 2950 2952 2955 2957 2959 2962 2965 2967 2970 2973 2976 2978 2980 2981 2983 2985 2987 2989 2991 2993 2995 2997 2999 3001 3003 3005 3007 3009 3011 3013 3016 3017 3020 3022 3023 3025 3026 3027 3029 3030 3031 3032 3033 3035 3036 3037 3039 3041 3042 3044 3047 3049 3051 3053 3055 3057 3058 3060 3062
2904 2905 2905 2905 2906 2906 2907 2908 2910 2912 2915 2917 2920 2922 2925 2927 2930 2933 2936 2939 2941 2942 2942 2942 2944 2945 2945 2947 2950 2952 2954 2957 2960 2962 2964 2967 2971 2974 2976 2977 2978 2980 2982 2985 2987 2988 2990 2992 2995 2997 2999 3001 3002 3004 3007 3008 3011 3013 3015 3017 3019 3021 3022 3024 3026 3027 3029 3031 3032 3033 3034 3036 3037 3038 3040 3042 3043 3045 3047 3049 3051 3053 3054 3056 3058 3060
2904 2904 2904 2904 2904 2904 2905 2907 2908 2910 2913 2915 2917 2920 2923 2926 2928 2931 2934 2937 2938 2938 2938 2939 2941 2942 2942 2944 2946 2949 2951 2954 2957 2959 2961 2964 2968 2971 2973 2975 2977 2978 2979 2982 2984 2986 2987 2990 2993 2995 2997 2998 3000 3002 3003 3005 3007 3010 3012 3014 3016 3018 3020 3022 3024 3026 3027 3029 3031 3032 3034 3035 3037 3038 3039 3041 3042 3044 3046 3048 3049 3051 3052 3054 3056 3057
2903 2904 2904 2903 2903 2903 2903 2904 2906 2908 2911 2913 2916 2918 2921 2924 2926 2928 2931 2934 2935 2935 2936 2938 2938 2938 2938 2940 2943 2946 2950 2952 2954 2955 2958 2962 2965 2968 2970 2973 2975 2976 2976 2979 2981 2984 2986 2988 2990 2992 2994 2995 2997 2999 3001 3002 3005 3007 3009 3012 3014 3016 3018 3020 3022 3024 3026 3027 3029 3031 3032 3034 3036 3037 3038 3040 3042 3043 3045 3047 3048 3049 3051 3052 3054 3055
2903 2903 2903 2903 2902 2902 2902 2903 2905 2907 2909 2912 2914 2916 2919 2921 2923 2926 2929 2931 2932 2933 2935 2936 2937 2937 2937 2938 2941 2945 2949 2951 2952 2953 2956 2959 2962 2965 2968 2971 2972 2972 2973 2975 2978 2981 2984 2986 2988 2990 2992 2993 2995 2997 2998 3001 3003 3005 3007 3009 3012 3014 3016 3018 3020 3022 3024 3026 3027 3029 3031 3033 3034 3036 3038 3040 3041 3043 3044 3046 3047 3048 3050 3051 3053 3054
2902 2902 2903 2903 2902 2902 2902 2902 2903 2905 2907 2910 2912 2915 2917 2920 2922 2925 2927 2929 2930 2932 2933 2934 2936 2937 2937 2937 2939 2942 2945 2947 2949 2951 2954 2957 2959 2962 2965 2967 2968 2969 2971 2973 2975 2977 2981 2983 2986 2988 2990 2992 2994 2996 2998 3000 3002 3004 3006 3008 3010 3012 3014 3016 3018 3020 3022 3024 3026 3028 3030 3032 3033 3035 3037 3039 3041 3042 3044 3045 3046 3048 3049 3051 3052 3053
2902 2902 2902 2902 2902 2902 2902 2902 2903 2905 2907 2908 2911 2913 2917 2919 2922 2924 2926 2927 2928 2930 2932 2933 2934 2936 2936 2935 2936 2937 2940 2943 2946 2949 2952 2955 2957 2960 2962 2964 2965 2967 2970 2972 2974 2975 2977 2980 2983 2986 2988 2991 2993 2995 2997 2999 3001 3003 3005 3007 3009 3011 3012 3015 3017 3019 3021 3023 3025 3027 3029 3031 3032 3034 3036 3038 3039 3041 3042 3044 3046 3047 3048 3050 3051 3053
2902 2902 2902 2902 2902 2902 2903 2903 2903 2905 2907 2907 2909 2912 2916 2918 2920 2922 2924 2926 2927 2930 2932 2932 2932 2932 2933 2933 2934 2936 2938 2941 2944 2946 2948 2951 2954 2957 2959 2961 2962 2964 2967 2970 2973 2975 2976 2979 2982 2984 2987 2989 2991 2993 2996 2998 3000 3002 3004 3006 3008 3010 3012 3014 3016 3018 3020 3022 3024 3026 3028 3030 3032 3033 3035 3037 3038 3040 3042 3043 3045 3046 3047 3049 3051 3052
2902 2902 2902 2902 2902 2902 2903 2903 2904 2905 2907 2907 2908 2911 2914 2917 2919 2921 2923 2925 2927 2929 2931 2931 2931 2932 2932 2933 2934 2935 2937 2939 2941 2942 2944 2947 2951 2953 2956 2958 2960 2962 2964 2967 2970 2973 2976 2978 2981 2983 2985 2987 2990 2992 2995 2997 2999 3001 3003 3006 3008 3010 3012 3014 3016 3018 3020 3022 3023 3025 3027 3029 3031 3032 3034 3036 3037 3039 3041 3042 3044 3045 3047 3048 3050 3051
2902 2902 2902 2902 2902 2902 2903 2903 2904 2905 2907 2907 2908 2909 2912 2915 2918 2920 2922 2924 2926 2927 2929 2930 2931 2932 2932 2933 2933 2935 2936 2937 2939 2941 2942 2945 2948 2950 2953 2956 2957 2960 2962 2965 2967 2970 2974 2977 2979 2981 2983 2985 2988 2991 2993 2996 2998 3001 3003 3005 3008 3010 3012 3014 3016 3018 3020 3022 3023 3025 3027 3028 3030 3032 3033 3035 3037 3038 3040 3041 3043 3044 3046 3047 3048 3050
2902 2902 2902 2902 2902 2902 2903 2903 2904 2905 2906 2907 2907 2908 2911 2914 2917 2919 2922 2923 2925 2926 2927 2928 2929 2931 2932 2933 2934 2935 2936 2938 2940 2941 2942 2944 2946 2949 2952 2954 2956 2959 2962 2964 2966 2968 2972 2975 2978 2980 2982 2984 2986 2989 2992 2995 2998 3000 3003 3005 3007 3009 3012 3014 3016 3018 3020 3021 3023 3024 3026 3027 3029 3031 3032 3034 3036 3037 3039 3040 3042 3043 3044 3046 3047 3048
2902 2902 2903 2903 2903 2903 2903 2903 2904 2905 2906 2907 2907 2908 2910 2912 2915 2918 2921 2922 2923 2924 2925 2926 2927 2929 2931 2932 2934 2935 2937 2938 2940 2942 2943 2944 2946 2948 2951 2953 2956 2959 2961 2963 2965 2967 2970 2973 2976 2979 2982 2984 2986 2988 2991 2994 2997 3000 3002 3004 3007 3009 3011 3013 3015 3017 3019 3020 3022 3023 3025 3026 3028 3029 3031 3033 3034 3036 3037 3039 3040 3042 3043 3044 3045 3047
2902 2903 2903 2903 2903 2903 2903 2903 2904 2905 2906 2907 2907 2907 2908 2911 2914 2917 2919 2921 2922 2923 2924 2925 2927 2929 2931 2932 2934 2935 2937 2939 2940 2942 2943 2945 2947 2950 2952 2954 2957 2959 2962 2964 2965 2967 2970 2972 2975 2978 2981 2984 2986 2989 2991 2993 2996 2998 3001 3003 3006 3008 3010 3012 3014 3016 3018 3019 3021 3022 3024 3025 3027 3028 3030 3032 3033 3035 3036 3037 3039 3040 3042 3042 3044 3045
2902 2903 2903 2903 2904 2904 2904 2904 2904 2905 2906 2907 2907 2906 2907 2910 2912 2915 2917 2919 2921 2922 2923 2926 2927 2930 2931 2933 2934 2936 2937 2939 2940 2942 2944 2946 2948 2951 2953 2955 2957 2960 2962 2964 2967 2969 2971 2973 2975 2977 2980 2983 2986 2989 2991 2993 2996 2997 3000 3002 3005 3007 3009 3011 3013 3015 3017 3018 3019 3021 3022 3024 3026 3027 3029 3031 3032 3034 3035 3036 3037 3039 3040 3041 3042 3043
2902 2903 2903 2904 2904 2904 2904 2904 2904 2905 2906 2907 2907 2907 2907 2909 2911 2913 2916 2918 2919 2921 2923 2925 2927 2929 2931 2933 2935 2936 2938 2939 2941 2942 2945 2947 2949 2952 2954 2956 2958 2960 2962 2964 2966 2969 2971 2974 2977 2979 2981 2983 2986 2988 2990 2992 2995 2997 2999 3001 3003 3005 3007 3009 3012 3013 3015 3017 3018 3020 3022 3023 3025 3026 3028 3029 3031 3032 3033 3035 3036 3037 3038 3040 3041 3042
2902 2903 2903 2904 2904 2905 2905 2905 2905 2905 2906 2907 2908 2908 2908 2909 2910 2912 2914 2917 2919 2921 2923 2925 2927 2928 2930 2932 2934 2936 2937 2939 2941 2943 2945 2947 2949 2952 2954 2956 2958 2960 2961 2963 2965 2967 2970 2973 2976 2978 2981 2983 2985 2987 2989 2992 2994 2996 2998 3000 3002 3004 3006 3008 3010 3012 3013 3015 3017 3018 3020 3022 3024 3025 3027 3028 3030 3031 3032 3033 3034 3036 3037 3038 3039 3040
2901 2902 2903 2904 2905 2905 2905 2905 2906 2906 2907 2908 2908 2909 2909 2910 2911 2912 2914 2916 2918 2920 2922 2924 2926 2927 2928 2930 2932 2935 2937 2938 2940 2942 2944 2947 2949 2951 2953 2956 2957 2959 2961 2962 2964 2966 2969 2972 2974 2977 2979 2982 2984 2986 2988 2990 2992 2994 2996 2998 3000 3002 3005 3007 3008 3010 3012 3014 3016 3017 3019 3021 3022 3024 3026 3027 3028 3029 3030 3031 3032 3033 3034 3036 3037 3037
2900 2902 2903 2904 2905 2905 2906 2906 2906 2907 2907 2908 2909 2909 2910 2911 2912 2913 2914 2916 2917 2919 2921 2923 2925 2927 2928 2930 2932 2934 2937 2938 2940 2942 2944 2946 2948 2951 2953 2955 2957 2958 2960 2961 2963 2965 2968 2971 2973 2976 2978 2980 2982 2985 2987 2989 2991 2993 2995 2997 2999 3001 3003 3005 3007 3009 3011 3012 3014 3016 3018 3020 3021 3022 3024 3025 3026 3027 3028 3029 3030 3031 3032 3033 3035 3036
2900 2901 2902 2903 2904 2905 2906 2906 2907 2907 2908 2909 2909 2910 2911 2911 2912 2913 2915 2916 2917 2919 2921 2923 2926 2927 2929 2931 2933 2935 2937 2939 2941 2942 2944 2946 2948 2950 2953 2955 2957 2959 2960 2962 2963 2965 2968 2970 2972 2975 2977 2980 2982 2984 2986 2988 2990 2992 2994 2996 2998 3000 3002 3003 3006 3008 3010 3012 3013 3015 3016 3018 3019 3020 3022 3023 3024 3025 3026 3027 3028 3029 3031 3032 3033 3034
2899 2900 2901 2902 2904 2905 2905 2906 2907 2907 2908 2909 2910 2911 2911 2912 2912 2913 2915 2916 2917 2919 2921 2923 2925 2927 2929 2930 2931 2933 2935 2937 2940 2942 2944 2946 2948 2951 2953 2955 2957 2958 2960 2961 2963 2965 2967 2969 2971 2973 2976 2978 2981 2982 2985 2987 2989 2991 2993 2995 2997 2998 3000 3002 3004 3006 3008 3009 3011 3012 3014 3015 3017 3018 3020 3021 3022 3023 3024 3025 3027 3027 3029 3030 3031 3032
2898 2899 2901 2902 2903 2904 2905 2906 2907 2907 2908 2909 2910 2911 2912 2912 2913 2914 2915 2916 2917 2919 2920 2922 2924 2926 2927 2928 2930 2932 2933 2936 2938 2940 2943 2945 2947 2949 2952 2953 2954 2956 2957 2959 2961 2963 2966 2968 2970 2972 2975 2977 2979 2981 2983 2985 2987 2989 2991 2993 2995 2997 2998 3000 3002 3004 3006 3007 3009 3010 3012 3013 3015 3016 3017 3018 3020 3021 3022 3024 3025 3026 3027 3028 3029 3030
2897 2898 2900 2901 2902 2903 2904 2905 2906 2907 2908 2909 2910 2911 2911 2912 2913 2914 2915 2916 2917 2919 2920 2922 2923 2925 2927 2928 2929 2931 2932 2934 2937 2939 2941 2943 2945 2947 2949 2951 2952 2954 2956 2957 2960 2962 2964 2967 2969 2972 2974 2976 2978 2980 2982 2984 2986 2988 2990 2991 2993 2995 2997 2999 3001 3002 3004 3005 3007 3008 3010 3011 3013 3014 3015 3016 3018 3019 3021 3022 3022 3024 3025 3026 3027 3028
2897 2898 2899 2900 2901 2902 2903 2904 2906 2907 2908 2909 2910 2910 2911 2912 2913 2914 2915 2916 2917 2919 2920 2921 2922 2924 2926 2927 2929 2930 2932 2933 2935 2937 2940 2942 2944 2946 2948 2949 2951 2953 2955 2957 2959 2961 2963 2966 2968 2970 2972 2974 2976 2978 2980 2982 2984 2986 2988 2990 2992 2993 2995 2997 2999 3001 3002 3003 3005 3006 3008 3009 3011 3012 3013 3015 3016 3017 3018 3019 3020 3022 3022 3024 3025 3026
2896 2897 2898 2899 2900 2901 2902 2903 2905 2906 2907 2908 2909 2910 2911 2912 2912 2913 2914 2916 2917 2918 2920 2921 2922 2923 2925 2926 2928 2929 2931 2933 2935 2937 2938 2940 2942 2944 2946 2948 2950 2952 2954 2956 2958 2960 2962 2965 2967 2969 2971 2973 2975 2977 2979 2981 2983 2985 2986 2988 2990 2992 2994 2995 2997 2999 3000 3002 3003 3005 3006 3008 3009 3010 3012 3013 3014 3015 3016 3017 3018 3019 3020 3021 3022 3023
2896 2897 2897 2898 2899 2900 2901 2902 2903 2905 2906 2907 2908 2910 2911 2912 2912 2913 2914 2915 2916 2917 2918 2920 2921 2922 2924 2925 2927 2929 2931 2932 2934 2936 2937 2939 2941 2943 2945 2947 2949 2951 2952 2954 2957 2959 2961 2963 2966 2968 2970 2972 2974 2976 2978 2979 2981 2983 2985 2987 2988 2990 2992 2993 2995 2997 2998 3000 3002 3003 3005 3006 3007 3008 3010 3011 3012 3013 3014 3015 3016 3017 3018 3019 3020 3021
2896 2896 2897 2898 2899 2899 2900 2901 2902 2903 2905 2906 2907 2909 2910 2911 2912 2912 2913 2914 2915 2916 2917 2918 2920 2921 2923 2924 2926 2927 2929 2932 2933 2935 2937 2939 2940 2942 2944 2946 2947 2949 2951 2953 2955 2957 2960 2962 2964 2967 2969 2971 2972 2974 2977 2978 2980 2982 2983 2985 2987 2989 2990 2992 2994 2995 2997 2998 3000 3001 3002 3004 3005 3006 3007 3008 3009 3010 3011 3012 3013 3014 3016 3017 3018 3018